Location: Ferma
(41.9500°N, 44.5167°E)
Time: 20:41:21
(UTC+00:00)

FENGYUN 1C DEB - Pass Details

Date: 14 August 2022
Orbit: 606 x 930 km, 99.7° (Epoch: 01 October)

Event Time Altitude Azimuth Distance (km) Brightness Sun altitude
Exits shadow 16:26:53 - 105° (ESE) 2,699 ? -4.8°
Reaches altitude 10° 16:28:21 10° 93° (E) 2,327 ? -5.0°
Maximum altitude 16:31:25 16° 56° (ENE) 1,994 ? -5.5°
Drops below altitude 10° 16:34:37 10° 20° (NNE) 2,461 ? -6.1°
Sets 16:37:57 0° 1° (N) 3,460 ? -6.6°
